Location: �perlecques
(50.8057°N, 2.1521°E)
Time: 20:37:07
(UTC+00:00)

Tiros 1 - Pass Details

Date: 04 August 2021
Orbit: 630 x 663 km, 48.4° (Epoch: 28 September)

Event Time Altitude Azimuth Distance (km) Brightness Sun altitude
Rises 21:01:44 0° 278° (W) 2,979 11.4 -12.0°
Reaches altitude 10° 21:04:09 10° 272° (W) 2,061 10.4 -12.3°
Maximum altitude 21:08:42 46° 200° (SSW) 869 7.6 -12.8°
Enters shadow 21:11:38 20° 135° (SE) 1,484 8.4 -13.1°
Drops below altitude 10° 21:13:11 10° 127° (SE) 2,034 - -13.2°
Sets 21:15:33 0° 122° (ESE) 2,936 - -13.5°
